STARLINK-35745, 66271

Orbit data source: Space-Track

STARLINK-35745, 66271 is a payload satellite owned by SpaceX/Seattle (US) in LEO that was launched on Fri, 31 Oct 2025 UTC via an FALCON 9 launch vehicle from the Air Force Western Test Range (AFWTR). Payload-class satellites include a variety of spacecraft equipped with specific instruments for various scientific and technological missions. These include communications satellites like Starlink; space stations such as the ISS; scientific satellites like the Hubble; Earth observation satellites from companies like Planet Labs, Umbra, and HawkEye 360; GPS; miniature CubeSats for education and research; and military/defense satellites.

Loading next visibility...
Identifier
66271, 2025-247G
Orbit
LEO
Country
Flag of USUS
Related business
Manufacturer
SpaceX/Seattle
Mission
Operational Commercial Communications
Bus & Motor
STARLINK V2MO, Unknown motor
Mass
575 kg wet, ~530 kg dry
Launch date (UTC)
2025-10-31 (8 months ago)
Launch vehicle
FALCON 9
Launch site
Air Force Western Test Range (AFWTR)
Object type
Payload
Rocket body
Debris
Shape & HBR
Box + 2 Pan, 17.7 m
Radar Cross Section
36.964 m², Large (>1 m²)

Expand to show TLE details & history
Last TLE update: 22 hours ago

TLE from 22 hours ago
0 STARLINK-35745
1 66271U 25247G   26170.94629016  .00029181  00000-0  87092-3 0  9995
2 66271  53.1602  76.1905 0001921 138.6369 221.4779 15.34417950 36749
Epoch: 2026-06-19T22:42Z
TLE epoch observation values (Epoch: 2026-06-19T22:42:39.469Z)
Latitude
-0.00007°
Longitude
-172.64198°
Altitude
464.536 km
Speed
7.635 km/s
True Right ascension
05h 04m 45s
True Declination
0° 00' 00"
Sunlit
Object was in daylight at epoch
Visualization orbit readout
Latitude
Unknown
Longitude
Unknown
Altitude
Unknown
Speed
Unknown
Apparent Right ascension
Unknown
Apparent Declination
Unknown
Sunlit
N/A
Visualization observer readout
Local Sidereal Time
07:14:27
Azimuth
Unknown
Elevation
Unknown
Doppler factor
Unknown
Orbital elements
Apogee altitude
464.221 km
Perigee altitude
461.593 km
Semi-major axis
6,841.044 km
Eccentricity
0.00019
Inclination
53.1602°
RAAN
76.1905°
Arg. of periapsis
138.6369°
True anomaly
221.46332°
Mean anomaly
221.4779°
Eccentric anomaly
221.47061°
Mean motion
3.83583 °/min
Orbital period
93.85 mins
BSTAR
0.00087092
Loading maneuver chart data...
Computing Atmospheric mass density...
Loading historical data...
Loading historical data...
Loading historical data...
Loading historical data...
Loading historical data...
Loading historical data...
Loading historical data...

Documentation

Showing up to 5 results
|